Location: *
(38.9800°N, 16.0500°E)
Time: 07:40:06
(UTC+00:00)

Cosmos 1269 Rocket - Pass Details

Date: 07 April 2020
Orbit: 772 x 779 km, 74.1° (Epoch: 24 May)

Event Time Altitude Azimuth Distance (km) Brightness Sun altitude
Rises 02:54:27 0° 341° (NNW) 3,270 7.4 -18.6°
Reaches altitude 10° 02:56:50 10° 342° (NNW) 2,338 6.6 -18.2°
Maximum altitude 03:02:10 85° 73° (ENE) 787 4.0 -17.3°
Drops below altitude 10° 03:07:28 10° 161° (SSE) 2,322 6.4 -16.3°
Sets 03:09:50 0° 162° (SSE) 3,245 7.2 -15.9°
